Location: Camden Lake
(44.4269°N, 76.8469°W)
Time: 12:44:21
(UTC-04:00)

Daily predictions for brighter satellites

Satellite Brightness Start Highest point End
(mag) Time Altitude Azimuth Time Altitude Azimuth Time Altitude Azimuth
ARGOS 4.3 21:07:11 10° ESE 21:11:43 29° ENE 21:16:15 10° N
Meteor 1-29 3.7 21:09:45 10° NNE 21:12:57 33° E 21:16:08 10° SSE
Cosmos 1703 Rocket 3.8 21:09:09 10° N 21:13:31 55° ENE 21:17:49 10° SSE
Cosmos 2150 Rocket 4.2 21:09:43 10° SSW 21:15:06 83° WNW 21:20:26 10° NNE
Cosmos 2298 Rocket 4.4 21:10:30 10° SSW 21:15:47 73° WNW 21:21:06 10° NNE
Cosmos 2082 Rocket 4.4 21:15:27 10° NW 21:19:45 23° W 21:24:04 10° SSW
Meteor 2-3 Rocket 3.8 21:14:32 10° S 21:20:15 80° E 21:25:56 10° NNE
SJ-11-01 4.5 21:17:02 10° S 21:21:46 80° WSW 21:26:31 10° NNW
Cosmos 1408 3.7 21:19:06 10° SSE 21:22:13 26° E 21:25:23 10° NNE
Cosmos 1782 3.4 21:21:28 10° N 21:25:16 39° ENE 21:29:00 10° SSE
ERS-1 Rocket 3.2 21:24:14 10° SSE 21:29:08 55° ENE 21:34:04 10° N
NOSS 3-2 (A) 4.2 21:25:14 10° SW 21:31:14 61° NW 21:37:53 10° NNE
Cosmos 2344 4.2 21:25:43 10° S 21:32:21 33° ESE 21:39:27 10° NE
Cosmos 1825 3.0 21:29:03 10° SSE 21:32:27 32° E 21:35:51 10° NNE
Cosmos 1869 Rocket 3.6 21:29:42 10° S 21:33:58 61° E 21:38:17 10° NNE
BREEZE-M DEB (TANK) 3.1 21:31:50 10° WNW 21:34:30 58° NNE 21:43:10 10° ESE
Cosmos 1048 Rocket 4.4 21:29:43 10° NNW 21:34:55 50° ENE 21:39:39 12° SE
Helios 1B rocket 2.4 21:32:12 10° NNE 21:36:21 86° ESE 21:40:27 10° SSW
Cosmos 2084 3.4 21:33:48 10° NW 21:37:36 67° SW 21:41:16 12° SSE
USA 215 3.4 21:35:07 10° ESE 21:41:35 77° NE 21:48:10 10° NW
Lacrosse 4 Rocket 2.2 21:41:43 10° NNW 21:46:04 44° NE 21:49:28 15° ESE
MetOp-A 4.2 21:40:56 10° SSE 21:46:14 68° ENE 21:51:34 10° N
Cosmos 1862 4.3 21:43:53 14° SE 21:46:40 28° E 21:50:06 10° NNE
Cosmos 2221 Rocket 3.6 21:43:39 10° N 21:48:07 89° ESE 21:52:34 10° S
Cosmos 1892 4.3 21:46:00 10° SW 21:49:35 37° WNW 21:53:10 10° N
NOSS 3-2 (C) 4.2 21:45:58 10° SW 21:51:58 59° NW 21:58:37 10° NNE
ISS -3.9 21:49:39 10° WSW 21:52:54 88° NNW 21:56:09 10° ENE
Cosmos 1943 Rocket 2.2 21:48:22 10° S 21:53:48 56° ESE 21:59:14 10° NNE
Terra 3.4 21:54:15 13° ESE 21:57:07 22° ENE 22:00:43 10° NNE
Cosmos 1634 Rocket 4.5 21:52:04 10° NNW 21:58:16 63° W 22:04:30 10° S
deb Kosmos-1763 4.1 21:55:22 10° NNW 21:59:08 75° ENE 22:01:44 19° SSE
Tiangong 2 3.3 22:00:09 10° WSW 22:02:10 16° SSW 22:03:23 13° S
Cosmos 2263 4.2 21:57:30 10° SSW 22:03:16 82° ESE 22:09:01 10° NNE
SPOT 1/Viking Rocket 3.9 22:00:52 17° SE 22:04:39 51° ENE 22:09:42 10° N
NOAA 11 4.4 21:59:12 10° S 22:04:39 74° WSW 22:10:10 10° NNW
CENTAUR R/B 2.5 22:00:11 10° SSW 22:06:10 73° ESE 22:13:03 10° NE
Cosmos 1340 2.6 22:02:24 10° N 22:06:12 75° E 22:08:45 20° SSE
Cosmos 372 Rocket 3.9 22:01:42 10° S 22:06:47 70° ESE 22:11:53 10° NNE
Cosmos 1437 4.5 22:07:16 10° NNE 22:09:37 19° ENE 22:10:20 17° E
Molniya-1 4.2 22:08:10 10° WSW 22:09:39 29° NW 22:11:06 10° NNE
BREEZE M DEB (TANK) 4.0 21:57:12 10° SW 22:09:59 68° SSE 22:13:45 10° ENE
Cosmos 1269 Rocket 4.0 22:05:39 10° NNW 22:10:59 89° WSW 22:14:55 18° SSE
COSMOS 2455 3.4 22:05:50 10° SW 22:11:47 62° NW 22:17:46 10° NNE
Nadezhda 4 Rocket 4.3 22:06:49 14° SSE 22:11:50 49° E 22:17:44 10° NNE
SPOT 5 3.1 22:08:10 16° SSE 22:12:27 78° ENE 22:17:45 10° N
Cosmos 2369 Rocket 2.8 22:09:53 10° SW 22:15:28 60° WNW 22:21:07 10° NNE
Cosmos 1125 Rocket 3.6 22:12:05 10° SSW 22:17:20 81° WNW 22:22:36 10° NNE
GEOS 3 Rocket 4.3 22:13:40 17° ESE 22:17:22 45° NE 22:22:22 10° NNW
H-2A R/B 3.7 22:16:51 15° E 22:18:30 19° ENE 22:21:25 10° NNE
YAOGAN 11 4.1 22:16:37 20° SSE 22:19:46 86° ENE 22:24:18 10° NNW
Cosmos 1833 4.2 22:14:22 10° NNW 22:20:12 84° ENE 22:24:00 22° SSE
Cosmos 1606 3.5 22:17:01 10° NNW 22:20:41 48° W 22:23:47 13° SSW
Lacrosse 5 rocket 1.8 22:22:03 10° WSW 22:25:33 53° NW 22:29:10 10° NE
Okean 3 4.5 22:22:10 10° N 22:25:55 31° ENE 22:27:17 25° ESE
IGS 5A 4.3 22:29:14 27° ESE 22:30:46 37° ENE 22:34:36 10° N
Cosmos 2297 Rocket 4.3 22:28:54 10° N 22:32:17 16° NE 22:35:39 10° E
ATLAS 5 CENTAUR R/B 2.7 22:31:16 10° NW 22:37:12 64° WSW 22:41:08 24° SSE
TRAILBLAZER 4.5 22:33:31 10° SSW 22:37:59 66° ESE 22:42:31 10° NE
Cosmos 1867 3.8 22:33:50 10° NNW 22:39:16 62° NE 22:42:05 28° ESE
Meteor 1-27 Rocket 3.9 22:33:33 10° NNW 22:39:19 71° W 22:43:18 20° S
Cosmos 1908 Rocket 4.2 22:38:31 32° SE 22:39:43 38° E 22:43:50 10° NNE
H-2A R/B 2.3 22:42:09 23° S 22:45:38 71° WSW 22:50:59 10° NNW
Cosmos 494 Rocket 4.0 22:41:52 10° NNW 22:47:07 71° ENE 22:49:23 34° SE
Intercosmos 25 Rocket 4.3 22:40:18 10° N 22:48:05 85° W 22:50:46 28° S
ARGOS 4.1 22:47:37 15° SSW 22:51:47 42° W 22:56:52 10° NNW
Cosmos 1656 Rocket 3.5 22:48:00 16° SSW 22:52:25 74° ESE 22:57:57 10° NNE
deb Chang Zheng 4 4.3 22:55:46 10° NNE 22:59:50 34° E 23:00:04 34° ESE
Cosmos 1733 Rocket 3.8 23:01:47 18° SSW 23:04:44 49° WNW 23:08:58 10° N
CZ-4B R/B 4.2 23:00:22 10° NNE 23:04:47 32° E 23:05:10 31° ESE
Cosmos 1782 Rocket 4.0 23:06:36 42° ESE 23:07:02 43° E 23:11:12 10° NNE
Sich 1 Rocket 3.5 23:12:21 49° S 23:13:31 81° E 23:17:57 10° N
Cosmos 1655 Rocket 4.3 23:13:17 36° SE 23:15:17 49° E 23:21:16 10° NNE
Cosmos 1346 4.3 23:16:41 10° NNW 23:18:40 36° WNW 23:18:40 36° WNW
Cosmos 2227 Rocket 3.1 23:17:19 10° NNW 23:22:34 38° NE 23:24:44 28° E
CZ-2C R/B 4.0 23:19:09 10° NE 23:22:58 21° E 23:22:58 21° E
Lacrosse 4 Rocket 3.3 23:21:05 10° WNW 23:24:29 21° WSW 23:25:48 19° SW
Meteor 1-14 Rocket 4.2 23:22:20 37° S 23:24:49 83° E 23:30:40 10° NNE
USA 215 4.2 23:22:28 26° SSW 23:24:57 33° SW 23:30:48 10° WNW
Meteor 2-20 Rocket 4.5 23:22:12 29° SSW 23:25:35 79° W 23:31:44 10° N
Cosmos 1975 Rocket 3.0 23:23:00 10° N 23:27:29 73° E 23:28:04 62° SE
Cosmos 2219 3.2 23:22:48 10° NNW 23:28:35 77° WSW 23:30:23 45° S
ISS -1.6 23:26:52 10° WNW 23:29:42 26° NNW 23:32:31 10° NE
Cosmos 2026 Rocket 3.9 23:28:05 38° S 23:30:37 83° E 23:36:55 10° N
SL-19 R/B 4.4 23:25:18 10° NNE 23:31:21 87° ESE 23:34:17 34° SSW
CZ-4C R/B 4.4 23:25:56 10° NNW 23:31:35 27° NNE 23:37:49 10° E
Cosmos 1633 3.9 23:33:17 29° ENE 23:33:17 29° ENE 23:35:35 10° NNE
Cosmos 1812 2.6 23:29:21 10° N 23:33:14 79° W 23:33:20 78° WSW
ALOS 2 4.3 23:32:47 21° ENE 23:33:25 22° ENE 23:36:46 10° NNE
Terra 2.5 23:33:08 36° SW 23:34:33 47° W 23:39:10 10° NNW
ATLAS CENTAUR R/B 1.2 23:36:09 76° ENE 23:36:09 76° ENE 23:39:44 10° NE
CARTOSAT-1 4.5 23:36:19 34° SW 23:37:19 39° W 23:41:24 10° NNW
BREEZE-M DEB (TANK) 3.6 23:36:03 44° S 23:37:20 55° SE 23:51:07 10° ENE
Cosmos 1943 Rocket 4.3 23:33:18 10° WSW 23:37:53 26° NW 23:42:29 10° N
Cosmos 2251 Rocket 4.0 23:34:30 10° NNW 23:39:34 49° WSW 23:40:56 39° SSW
Cosmos 1378 Rocket 4.4 23:36:51 10° NNW 23:41:04 44° W 23:42:03 38° SW
Gbstr 26 Del rocket 3.3 23:39:12 10° NW 23:43:29 55° NNE 23:44:06 48° ENE
Cosmos 1417 Rocket 4.4 23:37:52 10° N 23:44:10 87° E 23:46:11 47° S
Cosmos 2151 Rocket 4.5 23:44:35 36° E 23:44:35 36° E 23:48:17 10° NNE
ARGOS Delta rocket 3.4 23:41:21 10° NNE 23:45:53 84° ESE 23:46:12 75° SSE
Cosmos 2344 4.3 23:38:42 10° WSW 23:46:13 57° NW 23:55:03 10° NE
Meteor 2-11 Rocket 4.4 23:40:32 10° N 23:46:42 86° E 23:48:29 49° SSE
Cosmos 2369 4.4 23:46:56 35° ESE 23:46:56 35° ESE 23:51:57 10° NE
Cosmos 1428 Rocket 4.4 23:46:28 46° S 23:48:31 81° E 23:54:52 10° N
Cosmos 1980 Rocket 4.4 23:51:05 10° E 23:51:05 10° E 23:51:31 10° E
CZ-4C R/B 3.3 23:50:07 85° SE 23:50:14 87° ENE 23:54:24 10° NNW
Cosmos 1536 Rocket 4.3 23:46:54 10° N 23:51:02 40° ENE 23:51:02 40° ENE
S3M 3.9 23:45:09 10° N 23:51:18 77° E 23:52:56 51° SSE
H-2A R/B 2.7 23:53:59 40° WSW 23:54:14 40° W 23:58:08 10° NNW
Cosmos 405 Rocket 3.3 23:50:37 10° NNW 23:53:54 49° WNW 23:53:54 49° WNW
Okean 1 3.3 23:51:07 10° N 23:54:53 77° NNW 23:54:53 77° NNW
